Location: Paddlesworth
(51.1000°N, 1.1333°E)
Time: 19:23:13
(UTC+00:00)

Cosmos 2181 Rocket - Pass Details

Date: 11 May 2021
Orbit: 952 x 1014 km, 82.9° (Epoch: 21 June)

Event Time Altitude Azimuth Distance (km) Brightness Sun altitude
Exits shadow 23:29:22 28° 215° (SW) 1,723 4.9 -20.6°
Maximum altitude 23:32:38 59° 284° (WNW) 1,098 4.3 -20.6°
Drops below altitude 10° 23:38:42 10° 4° (N) 2,693 7.5 -20.7°
Sets 23:41:15 0° 9° (N) 3,642 8.5 -20.7°
